Location: Coed Ely
(51.5661°N, 3.4150°W)
Time: 03:18:57
(UTC+00:00)

Cosmos 2298 Rocket - Pass Details

Date: 28 January 2021
Orbit: 775 x 784 km, 74.0° (Epoch: 24 February)

Event Time Altitude Azimuth Distance (km) Brightness Sun altitude
Rises 19:05:20 0° 185° (S) 3,252 7.4 -19.9°
Reaches altitude 10° 19:07:46 10° 180° (S) 2,330 6.5 -20.3°
Maximum altitude 19:12:51 50° 107° (ESE) 997 4.2 -21.1°
Enters shadow 19:13:35 46° 80° (E) 1,044 4.2 -21.2°
